August, Belize

1:59 AM CST on January 16, 2018 (GMT -0600)
August

Weather History for 78583 - May, 2013

Change the Weather History Date:

Friday, May 24, 2013

  Actual Average Record
Temperature  
Mean Temperature 86 °F -  
Max Temperature 90 °F 89 °F - ()
Min Temperature 81 °F 77 °F - ()
Cooling Degree Days 20    
Growing Degree Days 36 (Base 50)    
Moisture  
Dew Point 77 °F    
Average Humidity 73    
Maximum Humidity 89    
Minimum Humidity 61    
Precipitation  
Precipitation 0.00 in 0.30 in - ()
Sea Level Pressure  
Sea Level Pressure 29.94 in    
Wind  
Wind Speed 9 mph ()    
Max Wind Speed 14 mph    
Max Gust Speed -    
Visibility 8.3 miles    
Events      
T = Trace of Precipitation, MM = Missing Value Source: Averaged Metar Reports

Daily Weather History Graph

Daily Weather History Graph

Search for Another Location

Airport or City:

Trip Planner

Search our weather history database for the weather conditions in past years. The results will help you decide how hot, cold, wet, or windy it might be!

Date:

Astronomy

May. 24, 2013 Rise Set
Actual Time 5:18 AM CST 6:21 PM CST
Civil Twilight 4:55 AM CST 6:45 PM CST
Nautical Twilight 4:27 AM CST 7:13 PM CST
Astronomical Twilight 3:58 AM CST 7:41 PM CST
Moon 6:06 PM CST (5/24) 4:43 AM CST (5/24)
Length of Visible Light 13h 50m
Length of Day
13h 03m
Full, 100% of the Moon is Illuminated
May 24
Full
May 24
Full
May 31
Last Quarter
Jun 8
New
Jun 16
First Quarter

Hourly Weather History & Observations

Time (CST) Temp. Heat Index Dew Point Humidity Pressure Visibility Wind Dir Wind Speed Gust Speed Precip Events Conditions
12:00 AM 83 °F - 78 °F 82% 29.91 in 12 mi East 8.1 mph - -   Partly Cloudy
3:00 AM 82 °F - 78 °F 86% 29.88 in 12 mi East 6.9 mph - -   Partly Cloudy
5:00 AM 82.4 °F 92.4 °F 78.8 °F 89% 29.89 in 6.2 mi East 5.8 mph - N/A   Mostly Cloudy
6:00 AM 82 °F - 76 °F 79% 29.93 in 12 mi East 6.9 mph - -   Partly Cloudy
6:00 AM 82.4 °F 90.9 °F 77.0 °F 84% 29.92 in 6.2 mi East 6.9 mph - N/A   Mostly Cloudy
7:00 AM 84.2 °F 94.1 °F 77.0 °F 79% 29.95 in 6.2 mi East 9.2 mph - N/A   Mostly Cloudy
8:00 AM 86.0 °F 99.3 °F 78.8 °F 79% 29.95 in 6.2 mi East 10.4 mph - N/A   Mostly Cloudy
9:00 AM 86 °F - 78 °F 70% 29.97 in 12 mi East 10.4 mph - -   Partly Cloudy
9:00 AM 86.0 °F 96.9 °F 77.0 °F 74% 29.97 in 6.2 mi East 10.4 mph - N/A   Mostly Cloudy
10:00 AM 87.8 °F 99.7 °F 77.0 °F 70% 29.97 in 6.2 mi East 12.7 mph - N/A   Mostly Cloudy
11:00 AM 87.8 °F 99.7 °F 77.0 °F 70% 29.98 in 6.2 mi East 12.7 mph - N/A   Mostly Cloudy
12:00 PM 89 °F - 77 °F 61% 29.96 in 12 mi East 12.7 mph - -   Partly Cloudy
12:00 PM 89.6 °F 102.2 °F 77.0 °F 66% 29.95 in 6.2 mi East 12.7 mph - N/A   Mostly Cloudy
1:00 PM 87.8 °F 99.7 °F 77.0 °F 70% 29.94 in 6.2 mi East 13.8 mph - N/A   Mostly Cloudy
2:00 PM 87.8 °F 97.6 °F 75.2 °F 66% 29.93 in 6.2 mi East 12.7 mph - N/A   Mostly Cloudy
3:00 PM 87 °F - 77 °F 64% 29.92 in 12 mi East 13.8 mph - -   Mostly Cloudy
3:00 PM 87.8 °F 99.7 °F 77.0 °F 70% 29.92 in 6.2 mi East 13.8 mph - N/A   Mostly Cloudy
4:00 PM 86.0 °F 95.1 °F 75.2 °F 70% 29.91 in 6.2 mi East 11.5 mph - N/A   Mostly Cloudy
5:00 PM 86.0 °F 95.1 °F 75.2 °F 70% 29.89 in 6.2 mi East 11.5 mph - N/A   Mostly Cloudy
6:00 PM 85 °F - 75 °F 66% 29.92 in 12 mi East 11.5 mph - -   Partly Cloudy
6:00 PM 84.2 °F 92.3 °F 75.2 °F 74% 29.92 in 6.2 mi East 11.5 mph - N/A   Mostly Cloudy
9:00 PM 83 °F - 76 °F 74% 29.99 in 12 mi East 11.5 mph - -   Partly Cloudy